Weather History for EGLF - March, 2013

Change the Weather History Date:

Wednesday, March 6, 2013

  Actual Average (EGLL) Record (EGLL)
Temperature  
Mean Temperature 47 °F -  
Max Temperature 57 °F 48 °F 57 °F (2007)
Min Temperature 37 °F 36 °F 28 °F (2005)
Degree Days  
Heating Degree Days 18    
Moisture  
Dew Point 42 °F    
Average Humidity 72    
Maximum Humidity 93    
Minimum Humidity 52    
Precipitation  
Precipitation 0.02 in - - ()
Sea Level Pressure  
Sea Level Pressure 29.52 in    
Wind  
Wind Speed 5 mph ()    
Max Wind Speed 9 mph    
Max Gust Speed -    
Visibility 5.1 miles    
Events      
Averages and records for this station are not official NWS values.
T = Trace of Precipitation, MM = Missing Value Source: Averaged Metar Reports

Daily Weather History Graph

Daily Weather History Graph

Search for Another Location

Airport or City:

Trip Planner

Search our weather history database for the weather conditions in past years. The results will help you decide how hot, cold, wet, or windy it might be!

Date:

Astronomy

Mar. 06, 2013 Rise Set
Actual Time 6:36 AM GMT 5:52 PM GMT
Civil Twilight 6:03 AM GMT 6:25 PM GMT
Nautical Twilight 5:25 AM GMT 7:04 PM GMT
Astronomical Twilight 4:46 AM GMT 7:43 PM GMT
Moon 3:02 AM GMT (3/6) 11:49 AM GMT (3/6)
Length of Visible Light 12h 21m
Length of Day
11h 15m
Waning Crescent, 32% of the Moon is Illuminated
Mar 6
Waning Crescent
Mar 11
New
Mar 19
First Quarter
Mar 27
Full
Apr 3
Last Quarter

Hourly Weather History & Observations

Time (GMT) Temp. Windchill Dew Point Humidity Pressure Visibility Wind Dir Wind Speed Gust Speed Precip Events Conditions
2:50 AM 37 °F - 34 °F 86% 29.57 in 5 mi SW 1.2 mph - -   Scattered Clouds
5:50 AM 41 °F - 38 °F 86% 29.55 in 5 mi SE 1.2 mph - -   Overcast
6:50 AM 41.0 °F - 39.2 °F 93% 29.53 in - North - - N/A   Unknown
7:20 AM 41.0 °F - 39.2 °F 93% 29.53 in 5.0 mi SE 1.2 mph - N/A   Unknown
7:50 AM 44.6 °F - 41.0 °F 87% 29.56 in 5.0 mi East 2.3 mph - N/A   Unknown
8:20 AM 44.6 °F 41.4 °F 41.0 °F 87% 29.56 in 4.3 mi East 5.8 mph - N/A   Unknown
8:50 AM 47 °F - 41 °F 73% 29.56 in 4 mi East 8.1 mph - -   Mostly Cloudy
8:50 AM 46.4 °F 43.5 °F 41.0 °F 81% 29.53 in 4.3 mi East 5.8 mph - N/A   Unknown
9:20 AM 48.2 °F - 41.0 °F 76% 29.56 in 4.3 mi ENE 6.9 mph - N/A   Unknown
9:50 AM 48.2 °F - 41.0 °F 76% 29.56 in 4.3 mi ENE 6.9 mph - N/A   Unknown
10:20 AM 50.0 °F - 41.0 °F 71% 29.53 in 4.3 mi ENE 6.9 mph - N/A   Unknown
10:50 AM 50.0 °F - 42.8 °F 76% 29.53 in 4.3 mi East 6.9 mph - N/A   Unknown
11:20 AM 50.0 °F - 41.0 °F 71% 29.53 in 4.3 mi East 6.9 mph - N/A   Scattered Clouds
11:50 AM 52 °F - 42 °F 60% 29.55 in 4 mi East 8.1 mph - -   Overcast
11:50 AM 51.8 °F - 42.8 °F 71% 29.53 in 4.3 mi East 8.1 mph - N/A   Scattered Clouds
12:20 PM 51.8 °F - 42.8 °F 71% 29.53 in 4.3 mi ENE 6.9 mph - N/A   Scattered Clouds
12:50 PM 53.6 °F - 42.8 °F 67% 29.53 in 5.0 mi East 5.8 mph - N/A   Scattered Clouds
1:20 PM 55.4 °F - 42.8 °F 63% 29.50 in 5.6 mi East 8.1 mph - N/A   Mostly Cloudy
1:50 PM 55.4 °F - 42.8 °F 63% 29.50 in 6.2 mi East 9.2 mph - N/A   Mostly Cloudy
2:20 PM 57.2 °F - 44.6 °F 63% 29.50 in 6.2 mi SE 6.9 mph - N/A   Mostly Cloudy
2:50 PM 57 °F - 44 °F 52% 29.52 in 9 mi ESE 6.9 mph - -   Scattered Clouds
2:50 PM 57.2 °F - 44.6 °F 63% 29.50 in 6.2 mi SE 8.1 mph - N/A   Scattered Clouds
3:20 PM 57.2 °F - 42.8 °F 59% 29.50 in 6.2 mi ESE 9.2 mph - N/A   Scattered Clouds
3:50 PM 55.4 °F - 44.6 °F 67% 29.50 in 6.2 mi East 8.1 mph - N/A   Scattered Clouds
4:20 PM 55.4 °F - 42.8 °F 63% 29.50 in 6.2 mi East 8.1 mph - N/A   Scattered Clouds
4:50 PM 53.6 °F - 42.8 °F 67% 29.50 in 5.0 mi NE 8.1 mph - N/A   Unknown
5:20 PM 53.6 °F - 42.8 °F 67% 29.50 in 5.0 mi ENE 9.2 mph - N/A   Unknown
5:50 PM 54 °F - 42 °F 54% 29.51 in 6 mi ENE 8.1 mph - -   Mostly Cloudy
5:50 PM 53.6 °F - 42.8 °F 67% 29.50 in 5.6 mi ENE 8.1 mph - N/A   Unknown
6:20 PM 53.6 °F - 42.8 °F 67% 29.50 in 5.6 mi East 6.9 mph - N/A   Unknown
6:50 PM 53.6 °F - 42.8 °F 67% 29.50 in 5.6 mi ENE 8.1 mph - N/A   Unknown
7:20 PM 51.8 °F - 42.8 °F 71% 29.50 in 5.6 mi East 6.9 mph - N/A   Unknown
7:50 PM 51.8 °F - 42.8 °F 71% 29.53 in 5.0 mi East 8.1 mph - N/A   Unknown
8:20 PM 50.0 °F - 42.8 °F 76% 29.53 in 5.0 mi ENE 6.9 mph - N/A   Unknown
8:50 PM 49 °F - 43 °F 71% 29.53 in 5 mi East 5.8 mph - -   Overcast
8:50 PM 50.0 °F - 42.8 °F 76% 29.53 in 5.0 mi ENE 8.1 mph - N/A   Unknown
11:50 PM 46 °F - 44 °F 89% 29.52 in 3 mi East 5.8 mph - -   Overcast